time,Sea Surface Temperature (deg_C),Sea Surface Salinity,Relative Wind Speed (m s-1),Surface Current Speed (m s-1),Precipitation (mm hour-1),Seawater Pressure 7m (dbar),Seawater Temperature 7m (deg_C),Practical Salinity 7m,Seawater Density 7m (kg m-3)
2016-09-03 00:00:00,22.747785840715682,32.81769508802759,6.107453693687412,0.22520781966329198,0.0067081451416015625,7.281720946698069,22.709411760350243,32.83800010954903,1022.4136844881809
2016-09-03 00:15:00,22.715437412261963,32.814435152452276,6.599399159413762,0.23781875731353688,,7.175582353730481,22.65461253521901,32.83474466415537,1022.4262751583938
2016-09-03 00:30:00,22.693066533406576,32.81487605870387,5.9991656828443665,0.2359165448273177,,7.226699399329536,22.626960397885714,32.832103609308874,1022.4323169905273
2016-09-03 00:45:00,22.68253339131673,32.814780858223806,5.880770270301497,0.25250912547564436,,7.3158377314726915,22.609665576393773,32.83199622712196,1022.4375094935417
2016-09-03 01:00:00,22.66840019226074,32.815385810553906,5.811888162993928,0.26207763523134675,0.007934558959235005,7.325275363369335,22.616042732755155,32.830802955025305,1022.4348452993347
2016-09-03 01:15:00,22.670733642578124,32.81758246889964,5.727330023642997,0.24907654063158727,,7.2795678726809,22.616271651979538,32.8335569327316,1022.4366701538031
2016-09-03 01:30:00,22.650856971740723,32.819897133212756,5.590415833191014,0.24558207425765138,,7.218827932338631,22.518502892457178,32.83192281176436,1022.4627413960166
2016-09-03 01:45:00,22.63393783569336,32.82261428980563,5.641212642002072,0.24944872240598065,,7.176204722668988,22.603220643618997,32.837520616267135,1022.442911951554
2016-09-03 02:00:00,22.61999994913737,32.82503791967903,5.725098929103696,0.2477247554002765,0.022874816258745767,7.224562327539322,22.516959529923117,32.83677635035745,1022.4668876389884
2016-09-03 02:15:00,22.621466954549152,32.82491222093386,5.5957888936140785,0.2470629215222458,,7.2346100148595855,22.553622343690392,32.83973936121666,1022.4588444403581
2016-09-03 02:30:00,22.593000157674155,32.826221938770466,5.644156456910508,0.22907854254015658,,7.219199080934323,22.48908215023578,32.8377542729442,1022.4754611502459
2016-09-03 02:45:00,22.596599833170572,32.828497611843076,5.098311716316622,0.22510770806674027,,7.290676929432782,22.573711586518435,32.845340831703986,1022.457670234814
2016-09-03 03:00:00,22.611428805759974,32.82943171855624,5.122867961076257,0.21136543237437797,0.027904673985073458,7.216544148779175,22.554719724886503,32.84408224501528,1022.4617501979018
2016-09-03 03:15:00,22.609312772750854,32.829750108010934,4.9905036904994695,0.20035583425076556,,7.316675410231017,22.56537404370271,32.84529082199759,1022.4600988079242
2016-09-03 03:30:00,22.595266596476236,32.83037148684281,4.483852104269957,0.19583999936895696,,7.318922755951083,22.535318163296463,32.845546207187674,1022.468777598195
2016-09-03 03:45:00,22.605466969807942,32.829022714270764,4.581916929329191,0.2790698107613813,,7.265018009918584,22.525724162862524,32.84461646616185,1022.4705419421348
2016-09-03 04:00:00,22.61173324584961,32.828680062501256,4.80803496488839,0.3543767641605259,0.021999867757159564,7.269321304103297,22.609443842822245,32.8474653253608,1022.449097347793
2016-09-03 04:15:00,22.609800084431967,32.829258468543294,5.015202938656688,0.3288698441696313,,7.3039983654118625,22.585030905331905,32.84687136756083,1022.455684373458
2016-09-03 04:30:00,22.59639981587728,32.82787736065001,4.437811876937633,0.3721128874747298,,7.324720575777949,22.582899721082796,32.84645568812854,1022.4560663828902
2016-09-03 04:45:00,22.613533401489256,32.82907344746341,4.289119074789901,0.3946764734652011,,7.270591916441088,22.61316339098123,32.84678447958713,1022.4475358308569
2016-09-03 05:00:00,22.631285667419434,32.828595623293964,4.587553842036296,0.3405006131176003,0.013500308990479937,7.327634073761293,22.630780742495645,32.84692755143339,1022.4429122999621
2016-09-03 05:15:00,22.635600026448568,32.82815230379107,4.362243699218644,0.3129322720103127,,7.3642265669102,22.640205426759774,32.846871043057526,1022.4403634140331
2016-09-03 05:30:00,22.636249899864197,32.8292935328008,4.557781111688685,0.2997765093423479,,7.299501785910362,22.646819254770573,32.84718295075906,1022.4384476653138
2016-09-03 05:45:00,22.632066599527995,32.82998484544438,4.447603557355226,0.2559635519040847,,7.334032997912819,22.638468253065156,32.84814982489843,1022.4416925758643
2016-09-03 06:00:00,22.62706667582194,32.82983974746638,4.421125494122293,0.23317852280482826,0.02066701253255232,7.37336173846181,22.638361826837293,32.848697430178404,1022.4423086572375
2016-09-03 06:15:00,22.624866739908853,32.83159398013004,4.666052283853257,0.20279035482555596,,7.37229501583842,22.63303874097359,32.849567364276794,1022.4444686100182
2016-09-03 06:30:00,22.624133173624674,32.832708637451844,4.705576975123841,0.17631625500507195,,7.388340014738016,22.635327766696832,32.850141119643126,1022.4443259716379
2016-09-03 06:45:00,22.6197333017985,32.83231891919191,4.961988755379582,0.16234013728715163,,7.390772380200193,22.626646454848345,32.85040189647226,1022.4469888321247
2016-09-03 07:00:00,22.61928571973528,32.8325485575493,4.85472528877833,0.1382910734938393,0.017190488179522845,7.357269727574749,22.62450107621874,32.85104932498145,1022.4479403841722
2016-09-03 07:15:00,22.616437554359436,32.83262564850753,5.285436216214889,0.1196386444847113,,7.368580524014309,22.62181270307904,32.85130534831116,1022.4489435601649
2016-09-03 07:30:00,22.607666778564454,32.832914035321906,5.202145803342348,0.14872189877259878,,7.4186328553426755,22.61821193334567,32.85056319954783,1022.4496164562164
2016-09-03 07:45:00,22.602266693115233,32.83286336526945,5.099349300953782,0.17502196320174634,,7.322727254326804,22.611369501612387,32.851232993750195,1022.451640974288
2016-09-03 08:00:00,22.59900016784668,32.83352133891557,5.286682551622107,0.15052728967785323,0.02066650390625213,7.330878937612621,22.612489148307713,32.85124857010994,1022.451371832732
2016-09-03 08:15:00,22.596333440144857,32.83316304535777,5.296870718687492,0.14239298401169068,,7.346096781650017,22.605905761217652,32.85146954381574,1022.4534657599231
2016-09-03 08:30:00,22.595400110880533,32.833864549433684,5.829970470013669,0.12775978283291475,,7.380229393225665,22.604097849481846,32.85175640248278,1022.4543423768199
2016-09-03 08:45:00,22.600600051879884,32.8338079476922,5.841267789540352,0.12542911707872312,,7.331798887357554,22.601786216151726,32.85176898977257,1022.4547944678941
2016-09-03 09:00:00,22.610466766357423,32.83337667900203,5.848151661483298,0.16545560840691462,0.017999903361001657,7.389324092721534,22.621975078762805,32.852469025856266,1022.4498697943467
2016-09-03 09:15:00,22.613933436075847,32.83421094964395,6.0582670098720435,0.16813347614858135,,7.387068700440717,22.620928095939213,32.85274672042918,1022.4503663271947
2016-09-03 09:30:00,22.630933252970376,32.83581060620967,6.16037390172578,0.13986991940109805,,7.3253001434312734,22.6314753667615,32.853474162640836,1022.4476672875644
2016-09-03 09:45:00,22.63393351236979,32.835455937983035,5.856837758468216,0.1277990392276268,,7.2951467002881145,22.642123249887877,32.85380722885689,1022.4447773562001
2016-09-03 10:00:00,22.63413340250651,32.83469008985667,6.492269286094972,0.10926871731965383,0.026415975888571808,7.332262135648386,22.640491166108777,32.854222387743356,1022.445714973058
2016-09-03 10:15:00,22.63164288657052,32.83541714392775,6.1144913290334655,0.11852193178274044,,7.3966200283344925,22.644509794803888,32.854697533114646,1022.4452181526499
2016-09-03 10:30:00,22.629124999046326,32.83651800079404,6.250682971492009,0.1267989897593418,,7.328868979605008,22.636437200236397,32.85452559315356,1022.4470765525308
2016-09-03 10:45:00,22.626000086466473,32.83618112543276,6.31235694331018,0.09327153319054382,,7.311565965023411,22.63592440464393,32.855230005797964,1022.4476801209415
2016-09-03 11:00:00,22.62380002339681,32.835883612518245,6.530784676629709,0.08108973340967526,0.002666600545246922,7.319980381399988,22.630018951697462,32.85509473657044,1022.4492841186275
2016-09-03 11:15:00,22.616399892171223,32.835490004327895,6.339927073472679,0.10997718913658362,,7.324584882589974,22.624417152426826,32.85522454110639,1022.4509863263045
2016-09-03 11:30:00,22.649066797892253,32.83747848689993,6.816384650071238,0.09004545535427963,,7.2857203557345525,22.635671934883973,32.85497815088259,1022.4474457126752
2016-09-03 11:45:00,22.59913330078125,32.83429396922511,6.634785000910839,0.07955434847187731,,7.253408055582189,22.61825788753134,32.855068121994705,1022.4522991124185
2016-09-03 12:00:00,22.59133326212565,32.83491780552876,6.892492249561119,0.07303433288120954,0.020666376749673532,7.337472838734497,22.600090434123256,32.854076494981264,1022.457047118553
2016-09-03 12:15:00,22.584399922688803,32.8345817731124,6.85609963658916,0.09291704393170261,,7.302448501821855,22.59441075750463,32.85364027140301,1022.45816858301
2016-09-03 12:30:00,22.573066584269206,32.83400845443704,7.54019191521038,0.10028642364729362,,7.28091217691212,22.583983665171967,32.853772703891394,1022.4611200629907
2016-09-03 12:45:00,22.56853332519531,32.83407708808682,7.455291318908703,0.07103918074372095,,7.257118336669496,22.57860273828892,32.854014554737454,1022.4627192434205
2016-09-03 13:00:00,22.56153335571289,32.83522913134382,7.61046407060358,0.07735070764303939,0.011999893188480826,7.280840015320771,22.56592280359832,32.854192147073675,1022.4665361299978
2016-09-03 13:15:00,22.564400100708006,32.83466639246528,7.846679051298455,0.052975267397790196,,7.190447613001754,22.570246866576056,32.854255881907726,1022.4649710561885
2016-09-03 13:30:00,22.561666615804036,32.83425574134562,7.981201089558584,0.07461813090248673,,7.271281864634593,22.57085068974793,32.85436915374724,1022.4652379498021
2016-09-03 13:45:00,22.550000127156576,32.83434208677351,7.964207667582596,0.09733710770705135,,7.147953501951873,22.558958512799443,32.854198590071476,1022.4679285374825
2016-09-03 14:00:00,22.55900026957194,32.834358416055466,8.081488593986458,0.10386790807584595,0.006666819254554923,7.069592697195688,22.562663877048557,32.85422432258523,1022.4665617233269
2016-09-03 14:15:00,22.537600072224937,32.83395203456152,7.942359745690383,0.13038474218606685,,7.185430980843955,22.55866835634734,32.85396311347974,1022.4679947820686
2016-09-03 14:30:00,22.513600158691407,32.83292780140613,8.295326496878259,0.14648068630693215,,7.188079632909277,22.526374378783913,32.85336555799549,1022.4766612772975
2016-09-03 14:45:00,22.504000345865887,32.83325756668253,8.159836113599294,0.15900844150650073,,7.303178192510389,22.517411056299075,32.85292353140742,1022.4793531221652
2016-09-03 15:00:00,22.48400026957194,32.83297577826754,8.263537618227112,0.1476279727617929,0.022667312622072444,7.1308761800918425,22.467491784227555,32.85186953053294,1022.4918526561011
2016-09-03 15:15:00,22.467666753133138,32.83193939167915,7.921095985994853,0.14377936473423233,,7.230615968027633,22.480320583475716,32.85250540659352,1022.4891677700161
2016-09-03 15:30:00,22.45386657714844,32.8312593963002,8.156410854119956,0.18235778031791783,,7.162440539663722,22.45339025271768,32.851150319658274,1022.4954217948681
2016-09-03 15:45:00,22.443400065104168,32.82956251716254,8.098407673993258,0.22800800887664582,,7.284652889558572,22.447460170835246,32.850300938622915,1022.4969777781804
2016-09-03 16:00:00,22.436066563924154,32.8293157860334,7.576358341479895,0.25797207032992836,0.01733347574869626,7.203867949940224,22.440517106723995,32.84913033265691,1022.497691423517
2016-09-03 16:15:00,22.44739990234375,32.82598471175842,7.4950177446287265,0.27165507623656104,,7.284051838723203,22.443185692020826,32.84683398527503,1022.4955483039075
2016-09-03 16:30:00,22.42366663614909,32.82428096216236,7.7626783183863965,0.2798822235867513,,7.111838740970903,22.448646999523454,32.84455834397097,1022.4915386165941
2016-09-03 16:45:00,22.389599736531576,32.823761095519416,7.9410484400071475,0.28524343836217125,,7.244839297708839,22.387802573790978,32.84392425145526,1022.5087331625417
2016-09-03 17:00:00,22.418200047810874,32.81969339583008,8.256126402075443,0.3049358577168183,0.0041481313251310326,7.126728892134395,22.422273963928593,32.8400150413764,1022.4955732415643
2016-09-03 17:15:00,22.426266606648763,32.81717476651174,7.8033222034714225,0.28674192765465845,,7.124042307939129,22.425413928613597,32.83780621444252,1022.4930044114086
2016-09-03 17:30:00,22.45035716465541,32.813931184251835,7.7694834679600415,0.28270188809683744,,7.129887819779653,22.44605745299317,32.83482675711493,1022.4849675839924
2016-09-03 17:45:00,22.455312371253967,32.809520623189634,8.055806716419013,0.3151369246086214,,7.196758174295308,22.47834923317351,32.8307824421805,1022.473107528905
2016-09-03 18:00:00,22.42193323771159,32.80580801697579,7.963780614213449,0.32091458241296633,0.01570798556010189,7.170916048958643,22.42717999422822,32.827133359245835,1022.4846202981385
2016-09-03 18:15:00,22.415066782633463,32.80247631335333,8.336466842680027,0.32026310307740324,,7.269163111300734,22.42962210202534,32.823571354445434,1022.4816607769327
2016-09-03 18:30:00,22.392800013224285,32.798983983066286,8.24392476004385,0.3628030511700248,,7.0913566620519575,22.40871188836959,32.8194659076064,1022.4836497668311
2016-09-03 18:45:00,22.35713348388672,32.795725767403304,8.280999280537893,0.39682920763180873,,7.12986400871629,22.375703448260133,32.816815038247995,1022.491074169393
2016-09-03 19:00:00,22.282266489664714,32.79158485925197,8.17712924961175,0.3874032474802663,0.007333246866863874,7.137669356191937,22.32083925888695,32.81313451823574,1022.5036994855631
2016-09-03 19:15:00,22.22299995422363,32.78944916273197,8.39021989790025,0.3824831066507834,,7.2628480767546035,22.246920427665312,32.81040245162858,1022.522857834064
2016-09-03 19:30:00,22.179857390267507,32.78631204818323,8.464381409359488,0.38787672955044394,,7.025549048027344,22.195336940052133,32.80807086116716,1022.5344644889485
2016-09-03 19:45:00,22.212499856948853,32.78262535854812,8.663592097342427,0.38222178288368386,,7.120443810183427,22.198461411865498,32.803774432738535,1022.5307465186803
2016-09-03 20:00:00,22.21779988606771,32.7776528014343,8.800894073391188,0.3912358995594684,0.012791824340823155,7.060828974782982,22.21789878951634,32.79932000131214,1022.521680552876
2016-09-03 20:15:00,22.23220024108887,32.773880577030006,8.8117936631314,0.43349637604679664,,7.090167557124013,22.237642887032152,32.79487893052303,1022.5129257708553
2016-09-03 20:30:00,22.23400026957194,32.77076554969472,9.293632332467462,0.4362363372067245,,7.096102330106774,22.24670281855758,32.79165446084675,1022.5079739721142
2016-09-03 20:45:00,22.215199915568032,32.76658238490245,9.267652360538557,0.4246468105164466,,6.917292073053294,22.219586933054877,32.789167733070165,1022.5128856352285
2016-09-03 21:00:00,22.211466852823893,32.76179494172145,9.50830207036759,0.45518497019286125,0.002666473388671875,7.049164004346737,22.209154482391067,32.78562763225609,1022.5136873294824
2016-09-03 21:15:00,22.213933181762695,32.746493291037005,10.001017866807938,0.46917413240660244,,7.017441817409545,22.213863604675264,32.77593022263098,1022.5048798383617
2016-09-03 21:30:00,22.192533365885417,32.73990966470545,9.513845902936987,0.48465097744160135,,6.909352956124349,22.212729655599283,32.763416557760735,1022.4952353539704
2016-09-03 21:45:00,22.160714421953475,32.72572245175102,9.257971382447552,0.4968470916039825,,6.9614064095629224,22.183656632409665,32.75186067078828,1022.4948101984857
2016-09-03 22:00:00,22.120999932289124,32.71327268152351,9.25837813515896,0.48201621047311644,0.013381095159623158,7.0202099390440775,22.1426214313612,32.736189437662624,1022.4946173408836
2016-09-03 22:15:00,22.071400197347007,32.70614204205201,9.38005216714344,0.45413126654670066,,7.1901846638515,22.08747710925633,32.729690950883516,1022.5057757007041
2016-09-03 22:30:00,22.085933430989584,32.69451552373364,9.690952534078138,0.42606458908945105,,7.022586676849427,22.090786758365468,32.717666793232034,1022.4950045174737
2016-09-03 22:45:00,22.0569330851237,32.68977488068021,9.347709297434799,0.40568588616400947,,6.9818643843017085,22.06746869744692,32.711841495520154,1022.4968900502781
2016-09-03 23:00:00,22.01920000712077,32.682997677183465,9.232910188899485,0.4045385105247672,0.01733360290527486,6.995068430032575,22.029147242012208,32.70815906987418,1022.5047976849686
2016-09-03 23:15:00,22.012642860412598,32.67244673406394,9.482385335306166,0.4268151873357305,,7.02167629814147,22.01469750832546,32.69749908866803,1022.5008351063792
2016-09-03 23:30:00,21.997874855995178,32.66684580090322,9.402591825546352,0.4339897568252108,,6.971640820203767,22.00724702248111,32.68964939143618,1022.4967288311634
2016-09-03 23:45:00,21.97806676228841,32.66194147072087,9.387607610442311,0.4048094552322833,,7.090687455502884,21.98894145165513,32.68444778926737,1022.4983763115704
2016-09-04 00:00:00,21.946933364868165,32.6592359730821,9.618265059187205,0.40690621603721117,0.012000020345048767,6.946892751802892,21.965939295798748,32.67987432976074,1022.5006542062371
2016-09-04 00:15:00,21.94533322652181,32.653947505358886,9.345061649674973,0.4207713727352896,,7.129411981675881,21.947456445386123,32.67772258795108,1022.5049355288751
2016-09-04 00:30:00,21.945933405558268,32.649805263747886,9.7502065443972,0.41462007542516666,,7.192077344985409,21.95357723209479,32.67049157903659,1022.4980272327593
2016-09-04 00:45:00,21.921000035603843,32.65057252961742,10.001592943559265,0.3883424575681971,,7.007251775052157,21.93323436536791,32.67071622108197,1022.5030231280697
2016-09-04 01:00:00,21.891799926757812,32.649460080583275,10.400984239399476,0.3700008353892873,0.009332911173501657,6.945935847271349,21.891540320593123,32.670354368780906,1022.5140119605783
2016-09-04 01:15:00,21.865066782633463,32.646999744784466,9.580993255100445,0.3876852345788814,,6.752674509626171,21.871420346568897,32.66910796262173,1022.5177819933472
2016-09-04 01:30:00,21.845200220743816,32.64060055868464,10.451273029498152,0.4413029042448515,,6.890157164696087,21.853533509816035,32.6641987592761,1022.5195958664594
2016-09-04 01:45:00,21.817533493041992,32.63742757252793,10.329371883252632,0.4376583927535405,,6.9954343415678295,21.825577984146697,32.66124398030558,1022.5255264943424
2016-09-04 02:00:00,21.819933319091795,32.64009482678458,9.708934585878687,0.42179345863276485,0.0029999142601369044,7.043881795889935,21.814460257781725,32.659651635176246,1022.5275949057796
2016-09-04 02:15:00,21.872800064086913,32.639655094248404,9.415888034863874,0.4224358071824984,,7.151523979106233,21.8710627187958,32.65869382420067,1022.5117169995773
2016-09-04 02:30:00,21.8861333211263,32.642915189921,9.523821445955445,0.37429283016504034,,6.968509727828165,21.880501120982206,32.66220784587228,1022.5109787650149
2016-09-04 02:45:00,21.8565000806536,32.647054211377124,8.80225255912345,0.33382604503946983,,7.131075350117204,21.861555159198446,32.666196903027554,1022.5199475714285
2016-09-04 03:00:00,21.801124930381775,32.65373772697414,9.618287458359035,0.2903930164821566,0.004916763305665484,6.916399563840213,21.823449893092537,32.67115431212531,1022.5332885554506
2016-09-04 03:15:00,21.716866302490235,32.66220843911596,9.517121277154478,0.2936140533652979,,7.057717544227937,21.72990764876423,32.67911398615951,1022.5657115630323
2016-09-04 03:30:00,21.648867034912108,32.67426024990901,9.778198038433048,0.30989911384744295,,7.04316407792754,21.676853963719754,32.688782307773536,1022.5875684281597
2016-09-04 03:45:00,21.598133214314778,32.69583725727548,10.255843481487497,0.30010826176366595,,7.105335703263272,21.616362034682556,32.70595491890588,1022.6174747821016
2016-09-04 04:00:00,21.558400090535482,32.72035202288184,9.879643417528671,0.2757904513703586,0.01350005467732629,7.031236380942527,21.58805024753851,32.73517380879711,1022.6470958125485
2016-09-04 04:15:00,21.524571418762207,32.75186794312337,10.699477847591803,0.24643355764600702,,7.056766234997703,21.533288590774966,32.76207082567429,1022.6826220836074
2016-09-04 04:30:00,21.505250096321106,32.78427880600361,10.153455750414604,0.24477795572950664,,7.162700536159154,21.520768412015013,32.795832621278514,1022.7121491474417
2016-09-04 04:45:00,21.555599975585938,32.814859001804514,10.116252206431938,0.26593156189371175,,7.0462221230638376,21.54060238761223,32.826805851128505,1022.7297368990548
2016-09-04 05:00:00,21.532933298746745,32.823857087196984,9.843842358645896,0.2382364873337264,0.010142953055243709,7.092099229440156,21.54883822761662,32.84082320219184,1022.7383271347969
2016-09-04 05:15:00,21.476399866739907,32.83063205294962,9.855005810746468,0.20174334062196228,,6.996262371259208,21.496673541980545,32.84890001951622,1022.7583146226464
2016-09-04 05:30:00,21.45093320210775,32.836844239791624,9.136408984973734,0.1992404503163151,,7.232252005267731,21.461850030326943,32.853216012312124,1022.7721353440699
2016-09-04 05:45:00,21.409857068743026,32.8386770657693,9.63095807522308,0.19585296752923945,,7.118365163211292,21.417889105517162,32.85849071661451,1022.7876413652112
2016-09-04 06:00:00,21.378249883651733,32.83970419425091,9.364994041081456,0.21573407118088217,0.0,7.083760541712824,21.378107100909506,32.85747412886431,1022.7975591726549
2016-09-04 06:15:00,21.34186693827311,32.84023713588149,9.863154248587026,0.20762593624348166,,7.042105535832577,21.373935988467025,32.86171990904074,1022.8017398190736
2016-09-04 06:30:00,21.297200139363607,32.83739673595938,9.457884260434737,0.21850961981181657,,7.047619831280285,21.308067664183163,32.85725130922962,1022.8162872646158
2016-09-04 06:45:00,21.28913319905599,32.8380914567348,9.539180263736325,0.26551180090329535,,7.114042473057188,21.295342381345662,32.85734252436689,1022.820105022924
2016-09-04 07:00:00,21.262133407592774,32.837313072436,10.333124258938021,0.26340105861402324,0.015047385579066486,6.998498661127669,21.282740493232136,32.85732367757952,1022.8230095999996
2016-09-04 07:15:00,21.23192855290004,32.83721404809144,9.851855609491853,0.25945582826459623,,7.085084844862717,21.23440726765456,32.85522885885474,1022.834910026311
2016-09-04 07:30:00,21.20174992084503,32.83516587400648,9.67186124949929,0.259062937479169,,6.962522410627625,21.196767517565103,32.855132300556754,1022.8445029045037
2016-09-04 07:45:00,21.20239995320638,32.83623200884098,9.182805299855845,0.27118797575597203,,7.006363135284851,21.198086116074876,32.85430593996911,1022.8437076842525
2016-09-04 08:00:00,21.20366668701172,32.834575083605905,9.650855203939816,0.2186101966751149,0.0013333638509109846,6.987978519499341,21.212520195381646,32.85904075249234,1022.8433172559536
2016-09-04 08:15:00,21.200999959309897,32.83672431938171,9.397297450496808,0.21297452462733923,,6.964883314602089,21.20846136862663,32.85870069435505,1022.8440579240183
2016-09-04 08:30:00,21.206466674804688,32.82984186308245,9.308211442163323,0.2682141825956045,,7.076489798539206,21.20320453604021,32.853828779993435,1022.8422666703043
2016-09-04 08:45:00,21.228000132242837,32.827223592091485,9.959987994176922,0.26076858223010396,,7.116588812547475,21.228476277523143,32.849057589284676,1022.831967690411
2016-09-04 09:00:00,21.257466634114582,32.831501290226825,10.093894625665657,0.29347032322557126,0.010000228881835938,7.040169868163485,21.25037392121054,32.85044568919512,1022.82675072158
2016-09-04 09:15:00,21.28499984741211,32.833404150253536,9.875842178337148,0.2997964495552703,,6.979168535257213,21.28489376088878,32.854837313412176,1022.8204517510511
2016-09-04 09:30:00,21.296666463216145,32.83111409437344,10.168561019138021,0.27046975476446683,,7.00990717704379,21.298813942469536,32.85216811163767,1022.8147767406232
2016-09-04 09:45:00,21.313133494059244,32.833947202929075,10.124451333230427,0.3352571254579929,,6.996033159809951,21.31982824212863,32.853931230205305,1022.8103445681481